Regional Weather Roundup
Issued by NWS

Home | Current Version | Previous Version | Graphics & Text | Print | Product List | Glossary On
Versions: 1 2 3 4 5 6 7 8 9 10 11 12 13 14 15 16 17 18 19 20 21 22 23 24 25 26 27 28 29 30 31 32 33 34 35 36 37 38 39 40 41 42 43 44 45 46 47 48 49 50
000
ASUS45 KBOU 230707
RWRCO

WEATHER ROUNDUP FOR COLORADO
NATIONAL WEATHER SERVICE DENVER/BOULDER CO
100 AM MDT SAT AUG 23 2014

NOTE: "FAIR" INDICATES FEW OR NO CLOUDS BELOW 12000 FEET WITH NO
SIGNIFICANT WEATHER AND/OR OBSTRUCTIONS TO VISIBILITY.

COZ001>005-013-030-031-230800-
...NORTHWEST COLORADO...

CITY           SKY/WX    TMP DP  RH WIND       PRES   REMARKS
CRAIG          CLOUDY    54  52  93 SW7       30.08R
HAYDEN         CLOUDY    55  48  76 E6        30.08F
MEEKER         MOCLDY    56  49  77 CALM      30.08R
MOUNT WERNER   NOT AVBL
STEAMBOAT SPGS CLOUDY    53  51  94 CALM      30.10F
WALDEN         MOCLDY    50  43  76 SE6       30.16F
$$

COZ006>008-011-230800-
...WEST CENTRAL VALLEYS...

CITY           SKY/WX    TMP DP  RH WIND       PRES   REMARKS
GRAND JUNCTION CLOUDY    65  51  60 SE14      30.00R
MONTROSE       CLOUDY    58  52  80 E3        30.11F
EAGLE          MOCLDY    55  48  76 E7        30.13R
RIFLE          MOCLDY    56  52  86 CALM      30.05S
DELTA          RAIN      64  50  62 E6        30.07F
NUCLA          CLOUDY    55  48  76 SE3       30.16R
$$

COZ017>023-064>068-230800-
...SOUTHWEST COLORADO...

CITY           SKY/WX    TMP DP  RH WIND       PRES   REMARKS
DURANGO        CLOUDY    53  51  93 CALM      30.21S
CORTEZ         CLOUDY    55  52  89 VRB3      30.15S
PAGOSA SPRINGS   N/A     50  49  94 CALM      30.27S
TELLURIDE      CLOUDY    52  43  71 CALM      30.30F
WOLF CREEK PAS NOT AVBL
$$

COZ009-010-012-014-032>034-037-058>063-230800-
...CENTRAL COLORADO...

CITY           SKY/WX    TMP DP  RH WIND       PRES   REMARKS
ASPEN          MOCLDY    52  45  77 SW3       30.18S
BUENA VISTA    CLOUDY    49  45  85 CALM      30.22F
COPPER MTN     CLOUDY    45  37  76 S16       30.42S HAZE
BERTHOUD PASS  RAIN      34  34 100 NW12      30.46S VSB<1/4 WCI  25
COTTONWOOD PAS CLOUDY    50  43  76 W3        30.31F
GUNNISON       PTCLDY    50  45  81 CALM      30.25S
KREMMLING      MOCLDY    52  46  82 CALM      30.16F
LEADVILLE      MOCLDY    45  43  93 CALM      30.29F
MONARCH PASS   FOG       39  37  93 SW20      30.53F VSB<1/4
SALIDA         MOCLDY    55  47  73 SE7       30.27S
SUNLIGHT       MOCLDY    45  41  87 CALM      30.35S
WILKERSON PASS NOT AVBL
$$

COZ069>075-230800-
...SAN LUIS VALLEY/SANGRE DE CRISTO MOUNTAINS...

CITY           SKY/WX    TMP DP  RH WIND       PRES   REMARKS
ALAMOSA        MOCLDY    49  48  97 NE3       30.24S
LA VETA PASS   NOT AVBL
SAGUACHE       CLOUDY    52  50  93 E6        30.27S
$$

COZ035-036-038>040-230800-
...NORTHERN COLORADO FRONT RANGE...

CITY           SKY/WX    TMP DP  RH WIND       PRES   REMARKS
DENVER INTL AP MOCLDY    61  58  90 CALM      30.04F
DMNS CITY PARK   N/A     62  56  82 S2        30.03F
AURORA         MOCLDY    58  58  97 CALM      30.06F
FRONT RANGE AP CLOUDY    63  59  88 CALM      30.06S
ERIE MUNI ARPT PTCLDY    59  56  89 CALM      30.03F
BOULDER MUN AP MOCLDY    61  59  94 W5        30.04F
CENTENNIAL     MOCLDY    57  54  89 S5        30.06F
BROOMFIELD     PTCLDY    61  55  82 SW3       30.06F
FORT COLLINS   CLOUDY    61  57  88 S3        30.04F
LONGMONT       CLOUDY    64  59  81 W6        30.05F
$$

COZ041-046-047-076>085-087-088-230800-
...PIKES PEAK/PALMER DIVIDE AND SOUTHERN FOOTHILLS...

CITY           SKY/WX    TMP DP  RH WIND       PRES   REMARKS
COLO. SPRINGS  PTCLDY    56  53  90 W3        30.09F
A. F. ACADEMY  MOCLDY    54  52  93 N6        30.11S
ELLICOTT       CLEAR     56  55  97 E7        30.07S
FALCON         CLEAR     54  53  97 CALM      30.12F
FORT CARSON    PTCLDY    59  55  88 CALM      30.07F
LIMON          CLEAR     56  56 100 W5        30.03F
MONUMENT HILL  CLOUDY    54  52  94 W7        30.12F
TRINIDAD       MOCLDY    58  55  90 SW7       30.08S
$$

COZ042>045-048>051-090-091-230800-
...NORTHEAST COLORADO...

CITY           SKY/WX    TMP DP  RH WIND       PRES   REMARKS
GREELEY ARPT   CLOUDY    63  54  72 CALM      30.02F
AKRON          CLOUDY    61  59  93 N3        30.00R
BURLINGTON     PTCLDY    62  61  96 S5        29.97R
WRAY             N/A    N/A N/A N/A E6        29.95R
STERLING       CLOUDY    64  63  94 CALM      29.97S
HOLYOKE        NOT AVBL
FORT MORGAN    CLOUDY    61  59  92 NW3       30.02S
$$

COZ086-089-092>099-230800-
...SOUTHEAST COLORADO...

CITY           SKY/WX    TMP DP  RH WIND       PRES   REMARKS
PUEBLO         CLEAR     58  52  80 W5        30.01F
LA JUNTA       PTCLDY    65  62  90 S5        29.99S
LAMAR          MOCLDY    66  62  87 SE3       29.96R
SPRINGFIELD      N/A     64  61  90 S8        30.02S
$$


USA.gov is the U.S. government's official web portal to all federal, state and local government web resources and services.